Location: Ku?niki
(51.4449°N, 17.8974°E)
Time: 10:24:57
(UTC+00:00)

Daily predictions for brighter satellites

Satellite Brightness Start Highest point End
(mag) Time Altitude Azimuth Time Altitude Azimuth Time Altitude Azimuth
MOS 1 Rocket 3.9 17:19:56 10° NNE 17:23:56 30° E 17:27:45 10° SSE
Cosmos 2297 Rocket 3.9 17:21:12 10° WSW 17:26:22 35° NW 17:31:34 10° NNE
Cosmos 1544 3.0 17:23:30 10° S 17:27:10 77° E 17:30:50 10° NNE
NOSS 2-2 (E) 4.5 17:26:37 10° SSE 17:29:15 20° ESE 17:32:06 10° ENE
OBJECT-B 3.0 17:29:00 10° E 17:30:15 12° ENE 17:31:30 10° NE
Cosmos 1842 3.2 17:26:32 10° N 17:30:26 80° E 17:34:17 10° SSE
Cosmos 1975 Rocket 3.0 17:29:10 10° N 17:33:30 64° ENE 17:37:48 10° SSE
FREGAT/IRIS 4.1 17:34:41 10° ESE 17:36:23 16° ENE 17:38:06 10° NNE
COSMO-SKYMED 1 3.4 17:32:08 10° N 17:36:24 56° WNW 17:40:39 10° SSW
Cosmos 2084 Rocket 4.2 17:33:01 10° NW 17:37:21 57° SW 17:41:47 10° SSE
H-2A R/B 2.0 17:36:32 10° SSE 17:41:29 79° ENE 17:46:36 10° NNW
ARGOS 3.2 17:36:34 10° SSE 17:41:51 64° ENE 17:47:12 10° N
CZ-2C R/B 3.6 17:37:29 10° NE 17:42:09 27° E 17:46:49 10° SSE
CENTAUR R/B 3.5 17:35:55 10° NW 17:43:20 51° NNE 17:51:21 11° ESE
DMSP B5D1-3 4.5 17:38:50 10° NNE 17:43:56 68° ESE 17:49:00 10° S
ATLAS 5 CENTAUR R/B 3.1 17:41:39 10° WNW 17:44:16 41° SW 17:50:49 10° SSE
Resurs 01 Rocket 3.4 17:41:42 10° E 17:44:29 16° ENE 17:47:16 10° NNE
Cosmos 1707 3.0 17:41:18 10° N 17:45:01 45° ENE 17:48:42 10° SSE
Cosmos 1743 4.2 17:44:38 10° SSW 17:48:18 42° WNW 17:51:59 10° N
Iridium 4 Rocket 3.7 17:43:59 10° S 17:48:57 80° W 17:54:25 10° N
ATLAS 3B R/B 3.8 17:43:04 10° NW 17:49:02 32° NNE 17:55:10 10° ENE
SJ-6B 3.4 17:46:34 10° SE 17:49:56 33° ENE 17:53:22 10° N
Sich 1 Rocket 3.8 17:46:03 10° SSE 17:50:22 48° E 17:54:45 10° NNE
USA 238 DEB 4.0 17:44:14 10° NW 17:51:19 62° NE 17:58:11 12° ESE
USA 238 4.0 17:44:21 10° NW 17:51:25 62° NE 17:58:16 12° ESE
ATLAS CENTAUR R/B 3.4 17:51:35 10° W 17:54:46 24° NNW 17:57:52 10° NNE
Cosmos 2263 Rocket 2.1 17:51:41 10° SSW 17:57:14 77° ESE 18:02:51 10° NNE
Meteor 2-9 Rocket 4.3 17:54:12 10° S 18:00:04 90° ESE 18:05:53 10° NNE
SL-08 RB Rocket 3.7 17:56:59 10° SSE 18:01:32 67° ENE 18:06:06 10° N
ARIANE 5 R/B 4.5 18:00:09 12° E 18:01:50 15° NE 18:04:14 10° NNE
CZ-2C R/B 3.9 17:59:27 10° S 18:04:36 57° W 18:10:05 10° NNW
Cosmos 1844 Rocket 3.7 18:00:38 10° SSE 18:04:55 23° ESE 18:09:12 10° NE
SJ 16-02 2.7 18:01:43 10° SW 18:05:53 42° WNW 18:10:05 10° NNE
Cosmos 990 Rocket 4.2 18:01:02 10° SSW 18:06:10 73° WNW 18:11:21 10° NNE
Cosmos 2227 4.3 18:01:05 10° SSW 18:06:51 87° WNW 18:12:36 10° NNE
Cosmos 1464 Rocket 4.0 18:01:01 10° SSE 18:06:59 56° E 18:13:00 10° NNE
ISS -2.2 18:05:27 10° S 18:07:51 18° SE 18:08:14 18° SE
Cosmos 1943 4.2 18:04:22 10° NW 18:09:47 48° WSW 18:15:11 10° S
Abrixas rocket 2.5 18:07:24 10° WSW 18:10:05 39° S 18:11:14 25° ESE
Okean 2 Rocket 3.3 18:06:15 10° SSE 18:10:36 50° E 18:14:57 10° NNE
IRS-1A Rocket 4.4 18:06:04 10° SSE 18:11:57 74° ENE 18:17:49 10° NNW
Lacrosse 5 rocket 2.2 18:10:48 10° W 18:15:01 53° NNW 18:19:27 10° ENE
Okean 1 Rocket 4.3 18:14:14 20° ESE 18:15:22 22° E 18:18:48 10° NE
Ariane Rocket 2.9 18:11:09 10° SSE 18:16:12 78° ENE 18:21:19 10° NNW
Meteor 1-12 Rocket 4.3 18:10:32 10° S 18:16:20 61° E 18:22:04 10° NNE
NOSS 3-2 (A) 4.0 18:12:24 10° NW 18:19:44 83° NE 18:26:32 17° SE
NOSS 2-2 (C) 3.3 18:18:33 10° SSW 18:21:56 46° SE 18:25:46 10° NE
Cosmos 494 Rocket 4.4 18:17:20 10° NNW 18:22:25 47° ENE 18:25:34 22° ESE
Cosmos 1833 Rocket 4.2 18:18:35 10° NNW 18:23:04 23° NE 18:26:05 16° ENE
Resurs 1-3 4.0 18:20:34 20° SE 18:23:16 44° ENE 18:27:28 10° N
Cosmos 1300 Rocket 3.5 18:19:32 10° S 18:23:53 65° E 18:28:17 10° NNE
Cosmos 2298 Rocket 4.4 18:19:42 10° S 18:24:42 42° ESE 18:29:43 10° NE
SPOT 3 Rocket 3.8 18:22:58 19° SE 18:26:28 48° ENE 18:31:24 10° N
MetOp-A 4.1 18:22:41 10° SSE 18:28:02 77° ENE 18:33:24 10° NNW
Cosmos 1898 Rocket 4.4 18:28:21 10° SW 18:33:22 51° WNW 18:38:28 10° NNE
Cosmos 1867 4.3 18:28:26 10° NW 18:33:42 50° WSW 18:38:36 12° SSE
Cosmos 1891 Rocket 4.4 18:28:33 10° S 18:34:43 90° E 18:40:49 10° N
Cosmos 1536 Rocket 3.5 18:33:07 10° N 18:37:35 86° ENE 18:41:16 15° S
USA 234 3.7 18:34:08 10° ENE 18:40:11 38° SE 18:46:12 10° SSW
Terra 3.9 18:40:19 12° ENE 18:41:01 12° NE 18:42:49 10° NNE
Cosmos 1626 3.1 18:40:06 10° N 18:43:18 29° ENE 18:43:18 29° ENE
Meteor 2-5 Rocket 3.9 18:39:42 10° N 18:45:13 54° ENE 18:48:05 28° SE
DMSP B5D2-2 4.0 18:40:04 10° NNE 18:45:23 69° ESE 18:50:39 10° S
CREW DRAGON DEMO-1 DEB 2.6 18:44:40 10° W 18:47:43 90° SSW 18:47:59 73° E
Cosmos 1025 Rocket 3.8 18:47:15 10° NNW 18:51:32 54° W 18:55:48 10° S
Cosmos 2151 Rocket 3.5 18:47:19 10° S 18:51:47 89° E 18:56:18 10° N
USA 186 3.5 18:48:59 10° SSW 18:51:49 32° W 18:54:46 10° NNW
Cosmos 372 Rocket 4.0 18:47:07 10° SSW 18:52:22 87° WNW 18:57:39 10° NNE
NOSS 3-2 (C) 4.0 18:46:29 10° NW 18:53:50 85° NE 18:58:44 28° SE
Cosmos 2150 Rocket 4.0 18:49:27 10° S 18:54:46 67° ESE 19:00:12 10° NNE
Nadezhda 4 Rocket 4.1 18:52:09 10° NNW 18:58:16 73° W 19:04:21 10° S
Cosmos 1805 3.3 19:00:43 54° E 19:00:43 54° E 19:04:32 10° NNE
SPOT 5 4.3 19:00:55 23° ENE 19:01:36 24° ENE 19:05:45 10° N
OBJECT-B 1.1 19:01:23 45° SSW 19:02:09 63° W 19:05:24 10° NNW
Cosmos 2082 Rocket 3.5 18:58:16 10° NNW 19:02:56 26° NE 19:04:43 22° ENE
Cosmos 2034 Rocket 4.1 18:57:30 10° S 19:03:54 83° W 19:10:18 10° N
Cosmos 1125 Rocket 3.5 19:00:34 10° S 19:05:44 57° ESE 19:10:58 10° NNE
FREGAT/IRIS 4.5 19:05:31 19° SW 19:06:24 23° W 19:08:36 10° NW
Exosat Rocket 3.6 19:01:45 10° S 19:07:07 54° ESE 19:11:59 10° NE
Cosmos 1674 3.0 19:04:33 10° NNW 19:08:23 66° W 19:09:42 38° SSW
COSMOS 2406 3.6 19:05:16 10° NNW 19:10:47 48° NE 19:12:17 39° E
Meteor 1-24 Rocket 3.6 19:06:58 10° N 19:12:25 67° ENE 19:14:11 43° SE
Cosmos 1733 4.0 19:17:21 38° NE 19:17:21 38° NE 19:19:58 10° NNE
SL-14 R/B 3.4 19:12:39 10° N 19:16:09 56° NE 19:16:09 56° NE
ERS-1 Rocket 3.9 19:17:24 32° ENE 19:17:35 32° ENE 19:22:01 10° N
CRYOSAT 2 4.5 19:12:53 10° NNE 19:17:41 51° E 19:17:48 51° E
NOSS 2-2 (E) 4.0 19:15:47 10° WSW 19:19:19 52° NW 19:23:34 10° NE
Resurs 01 Rocket 1.6 19:19:16 50° S 19:20:25 81° WSW 19:24:55 10° NNW
CZ-2C R/B 3.3 19:17:22 10° N 19:22:46 58° WNW 19:28:14 10° SW
ATLAS 2AS CENTAUR R/B 3.5 19:24:48 37° ESE 19:24:48 37° ESE 19:31:10 10° NE
Lacrosse 4 Rocket 3.0 19:22:41 10° NNW 19:25:54 23° NE 19:25:54 23° NE
Landsat 7 3.8 19:25:47 60° E 19:26:08 62° ENE 19:30:51 10° N
Cosmos 1655 Rocket 4.4 19:20:43 10° N 19:26:41 44° ENE 19:27:34 42° E
NOSS 2-2 (D) 3.9 19:24:15 10° WSW 19:27:45 53° NW 19:31:56 10° NE
Cosmos 1766 3.5 19:33:39 65° N 19:33:39 65° N 19:37:06 10° N
SPOT 1/Viking Rocket 3.5 19:33:46 59° E 19:34:10 62° ENE 19:39:18 10° N
CENTAUR R/B 3.3 19:26:42 10° NW 19:34:37 71° SW 19:38:32 36° SSE
ATLAS CENTAUR R/B 4.0 19:33:35 10° NNW 19:34:54 11° N 19:36:12 10° NNE
Cosmos 1844 3.5 19:30:34 10° SSW 19:36:16 82° ESE 19:41:56 10° NNE
Cosmos 2278 Rocket 4.4 19:40:44 12° NE 19:40:44 12° NE 19:41:12 10° NE
IGS 5A 3.6 19:37:09 67° NNE 19:37:09 67° NNE 19:40:50 10° N
Cosmos 1634 Rocket 3.8 19:34:23 32° S 19:37:28 84° E 19:43:42 10° N
ARIANE 5 R/B 2.5 19:37:43 88° NW 19:37:43 88° NW 19:42:03 10° NNW
Cosmos 1269 Rocket 4.0 19:35:19 10° NNW 19:40:39 80° WSW 19:41:30 63° S
ATLAS 3B R/B 2.8 19:34:08 10° NW 19:40:55 66° NE 19:42:49 48° E
Cosmos 2263 Rocket 4.2 19:37:05 10° W 19:41:46 27° NW 19:46:31 10° NNE
MetOp-B 4.1 19:41:11 55° S 19:42:22 79° WSW 19:47:45 10° NNW
Cosmos 2285 Rocket 3.9 19:36:11 10° SSW 19:42:29 88° ESE 19:48:54 10° NNE
ISS -0.9 19:40:53 10° WSW 19:41:15 13° WSW 19:41:15 13° WSW
Cosmos 1844 Rocket 2.8 19:42:43 10° SW 19:48:16 71° WNW 19:53:53 10° NNE
Spot 2 Rocket 3.3 19:48:07 82° SE 19:48:21 88° ENE 19:53:26 10° NNW
Cosmos 909 Rocket 4.4 19:42:03 10° NW 19:48:43 54° NE 19:50:00 47° E
Okean 1 Rocket 3.9 19:51:22 33° SW 19:52:57 49° WNW 19:57:20 10° N
Cosmos 1340 Rocket 4.5 19:55:19 27° NNE 19:55:19 27° NNE 19:57:14 10° NNE
Lacrosse 5 rocket 2.5 19:50:39 10° WNW 19:54:50 41° N 19:55:13 40° NNE
Meteor 2-19 Rocket 4.3 19:58:51 10° N 20:05:01 89° W 20:05:40 73° S
Cosmos 2180 Rocket 4.4 20:05:56 71° E 20:05:58 71° E 20:12:17 10° NNE
Cosmos 1833 Rocket 2.6 20:02:09 10° NNW 20:07:46 84° NE 20:07:46 84° NE
Cosmos 2251 Rocket 3.9 20:08:05 10° NNW 20:12:49 58° NNE 20:12:49 58° NNE
Terra 2.7 20:19:13 43° NNE 20:19:13 43° NNE 20:22:35 10° N
Cosmos 1626 4.3 20:15:28 10° NNW 20:17:51 23° WNW 20:17:51 23° WNW
Cosmos 2279 Rocket 4.0 20:20:51 63° SW 20:21:50 76° WNW 20:28:08 10° N
USA 234 3.1 20:19:22 24° ENE 20:23:40 88° NNW 20:30:14 10° WSW
SPOT 5 3.6 20:40:10 55° NW 20:40:10 55° NW 20:44:30 10° NNW
Cosmos 2082 Rocket 2.6 20:42:03 10° NNW 20:46:33 58° NW 20:46:33 58° NW
NOSS 3-4 (A) 4.4 20:54:06 38° NE 20:54:06 38° NE 20:57:58 10° NE
NOSS 3-4 (C) 4.4 20:54:17 37° NE 20:54:17 37° NE 20:58:04 10° NE
COSMOS 2406 4.3 20:49:49 10° NW 20:54:20 35° W 20:54:20 35° W
ERS-1 Rocket 4.2 20:57:24 38° WNW 20:57:24 38° WNW 21:01:05 10° NNW
Resurs 01 Rocket 4.4 20:56:51 11° W 20:57:39 11° W 20:59:01 10° WNW
Lacrosse 4 Rocket 3.9 21:00:59 10° NW 21:02:11 19° NW 21:02:11 19° NW
ATLAS 2AS CENTAUR R/B 3.1 21:11:59 45° WSW 21:14:44 76° NW 21:22:35 10° NE
ATLAS CENTAUR R/B 4.4 21:13:17 10° NNW 21:13:40 11° N 21:13:40 11° N
Cosmos 2278 Rocket 3.4 21:22:33 36° NNE 21:22:33 36° NNE 21:25:56 10° NNE
ATLAS 3B R/B 3.7 21:25:05 10° NW 21:30:03 36° W 21:30:03 36° W
Lacrosse 5 rocket 4.2 21:30:02 10° WNW 21:30:50 15° WNW 21:30:50 15° WNW
Terra 4.3 21:58:06 16° WNW 21:58:06 16° WNW 21:59:33 10° NW
USA 234 3.7 22:00:06 10° ENE 22:06:55 56° NNW 22:12:52 10° W
SL-16 R/B 4.4 22:27:14 20° ENE 22:28:15 20° NE 22:32:36 10° N
Cosmos 1943 Rocket 4.0 22:35:46 26° NNE 22:35:46 26° NNE 22:38:05 10° NNE
COSMOS 2455 4.1 22:35:51 38° N 22:35:51 38° N 22:39:45 10° NNE
USA 229 DEB 4.3 22:30:46 10° NW 22:37:22 57° NNE 22:37:22 57° NNE
USA 229 4.3 22:30:52 10° NW 22:37:29 57° NNE 22:37:29 57° NNE
Cosmos 2297 Rocket 4.3 22:41:19 10° NNW 22:45:33 21° NE 22:47:05 19° NE
NOSS 3-1 (A) 4.4 22:42:55 10° NW 22:49:53 57° NE 22:50:20 56° NE
Cosmos 2369 Rocket 3.8 22:59:18 29° NE 22:59:18 29° NE 23:01:59 10° NNE
CZ-4C R/B 3.6 23:02:00 38° NNE 23:02:00 38° NNE 23:06:23 10° NE
Cosmos 2278 Rocket 4.3 23:04:23 19° NW 23:05:29 20° NNW 23:09:33 10° NNE
ATLAS 2AS CENTAUR R/B 4.1 22:59:33 10° W 23:06:53 38° NNW 23:13:58 10° NE
Cosmos 2227 Rocket 3.6 23:38:06 10° NNW 23:43:13 34° NE 23:43:30 33° NE
USA 234 3.6 23:42:41 10° E 23:49:06 61° NNE 23:55:32 10° WNW
